When you browse on this site, cookies collect data to enhance your experience and personalize the content and advertising you see.
Visit our Privacy Policy to learn more. By continuing to use the site, you agree to this use of cookies and data.
  • In Hungary
  • List of Countries
  • For 7 days
  • Water Temperature
  • Weather Map
  • News
  • Weather Widgets
  • user-avatar
    Login

    Hourly Weather Lavumisa

    Today, 22 November, Friday

    Time Temperature Precipitation Wind Pressure Humidity
    00:00 +21°C° 0 mm 0 mps 744 mmHg 97%
    01:00 +21°C° 0 mm 0 mps 744 mmHg 97%
    02:00 +21°C° 0 mm 0 mps 744 mmHg 95%
    03:00 +21°C° 0 mm 0 mps 744 mmHg 95%
    04:00 +22°C° 0 mm 0 mps 744 mmHg 94%
    05:00 +22°C° 0 mm 0 mps 744 mmHg 94%
    06:00 +23°C° 0 mm 0 mps 744 mmHg 88%
    07:00 +26°C° 0 mm 1 mps 745 mmHg 82%
    08:00 +28°C° 0 mm 1 mps 745 mmHg 74%
    09:00 +29°C° 0 mm 1 mps 745 mmHg 70%
    10:00 +29°C° 0 mm 1 mps 744 mmHg 66%
    11:00 +30°C° 0 mm 2 mps 744 mmHg 62%
    12:00 +31°C° 0 mm 2 mps 744 mmHg 60%
    13:00 +31°C° 0 mm 2 mps 743 mmHg 59%
    14:00 +32°C° 0 mm 2 mps 743 mmHg 57%
    15:00 +31°C° 0 mm 2 mps 743 mmHg 62%
    16:00 +30°C° 0 mm 3 mps 743 mmHg 66%
    17:00 +29°C° 0 mm 3 mps 743 mmHg 71%
    18:00 +28°C° 0 mm 2 mps 743 mmHg 77%
    19:00 +27°C° 0 mm 2 mps 744 mmHg 82%
    20:00 +25°C° 0 mm 2 mps 744 mmHg 88%
    21:00 +25°C° 0.2 mm 1 mps 745 mmHg 90%
    22:00 +25°C° 0.2 mm 1 mps 745 mmHg 92%
    23:00 +23°C° 0.2 mm 0 mps 745 mmHg 94%

    Tomorrow, 23 November, Saturday

    Time Temperature Precipitation Wind Pressure Humidity
    00:00 +23°C° 0.1 mm 0 mps 745 mmHg 95%
    01:00 +22°C° 0.1 mm 0 mps 745 mmHg 95%
    02:00 +22°C° 0.1 mm 0 mps 744 mmHg 96%
    03:00 +24°C° 0 mm 1 mps 744 mmHg 96%
    04:00 +24°C° 0 mm 1 mps 744 mmHg 96%
    05:00 +24°C° 0 mm 1 mps 744 mmHg 96%
    06:00 +25°C° 0 mm 2 mps 744 mmHg 91%
    07:00 +27°C° 0 mm 3 mps 744 mmHg 85%
    08:00 +28°C° 0 mm 4 mps 744 mmHg 80%
    09:00 +30°C° 0 mm 4 mps 744 mmHg 72%
    10:00 +32°C° 0 mm 5 mps 743 mmHg 64%
    11:00 +34°C° 0 mm 5 mps 742 mmHg 56%
    12:00 +36°C° 0 mm 5 mps 742 mmHg 53%
    13:00 +37°C° 0 mm 5 mps 741 mmHg 49%
    14:00 +39°C° 0 mm 5 mps 740 mmHg 46%
    15:00 +36°C° 0.5 mm 6 mps 740 mmHg 52%
    16:00 +33°C° 0.5 mm 7 mps 740 mmHg 58%
    17:00 +31°C° 0.5 mm 8 mps 740 mmHg 64%
    18:00 +28°C° 0.6 mm 6 mps 741 mmHg 71%
    19:00 +26°C° 0.6 mm 4 mps 742 mmHg 78%
    20:00 +24°C° 0.6 mm 2 mps 743 mmHg 85%
    21:00 +25°C° 0.3 mm 2 mps 744 mmHg 89%
    22:00 +25°C° 0.3 mm 2 mps 744 mmHg 92%
    23:00 +25°C° 0.3 mm 1 mps 745 mmHg 96%

    Day after tomorrow, 24 November, Sunday

    Time Temperature Precipitation Wind Pressure Humidity
    00:00 +25°C° 0.1 mm 1 mps 744 mmHg 96%
    01:00 +25°C° 0.1 mm 1 mps 744 mmHg 95%
    02:00 +23°C° 0.1 mm 0 mps 744 mmHg 95%
    03:00 +23°C° 0.1 mm 0 mps 744 mmHg 95%
    04:00 +23°C° 0.1 mm 0 mps 745 mmHg 95%
    05:00 +23°C° 0.1 mm 0 mps 745 mmHg 96%
    06:00 +24°C° 0 mm 0 mps 745 mmHg 88%
    07:00 +26°C° 0 mm 0 mps 746 mmHg 80%
    08:00 +28°C° 0 mm 0 mps 746 mmHg 73%
    09:00 +31°C° 0 mm 1 mps 746 mmHg 68%
    10:00 +32°C° 0 mm 2 mps 745 mmHg 63%
    11:00 +34°C° 0 mm 2 mps 745 mmHg 59%
    12:00 +34°C° 0.1 mm 2 mps 744 mmHg 58%
    13:00 +34°C° 0.1 mm 3 mps 743 mmHg 57%
    14:00 +35°C° 0.1 mm 3 mps 743 mmHg 56%
    15:00 +33°C° 1.3 mm 3 mps 743 mmHg 66%
    16:00 +30°C° 1.3 mm 2 mps 743 mmHg 76%
    17:00 +28°C° 1.3 mm 1 mps 743 mmHg 86%
    18:00 +27°C° 0.4 mm 1 mps 743 mmHg 88%
    19:00 +26°C° 0.4 mm 1 mps 744 mmHg 91%
    20:00 +25°C° 0.4 mm 1 mps 745 mmHg 93%
    21:00 +25°C° 0 mm 1 mps 745 mmHg 94%
    22:00 +23°C° 0 mm 0 mps 745 mmHg 94%
    23:00 +23°C° 0 mm 0 mps 746 mmHg 94%

    25 November, Monday

    Time Temperature Precipitation Wind Pressure Humidity
    00:00 +25°C° 0.2 mm 1 mps 746 mmHg 95%
    01:00 +25°C° 0.2 mm 1 mps 746 mmHg 95%
    02:00 +25°C° 0.2 mm 2 mps 746 mmHg 96%
    03:00 +24°C° 0.1 mm 2 mps 746 mmHg 95%
    04:00 +23°C° 0.1 mm 2 mps 746 mmHg 94%
    05:00 +21°C° 0.1 mm 2 mps 746 mmHg 93%
    06:00 +23°C° 0 mm 2 mps 747 mmHg 90%
    07:00 +23°C° 0 mm 2 mps 747 mmHg 87%
    08:00 +23°C° 0 mm 2 mps 748 mmHg 84%
    09:00 +25°C° 0 mm 2 mps 747 mmHg 75%
    10:00 +28°C° 0 mm 2 mps 747 mmHg 66%
    11:00 +30°C° 0 mm 2 mps 747 mmHg 57%
    12:00 +30°C° 0 mm 2 mps 746 mmHg 59%
    13:00 +30°C° 0 mm 2 mps 745 mmHg 60%
    14:00 +30°C° 0 mm 3 mps 744 mmHg 61%
    15:00 +29°C° 0 mm 3 mps 744 mmHg 66%
    16:00 +28°C° 0 mm 3 mps 744 mmHg 70%
    17:00 +27°C° 0 mm 3 mps 744 mmHg 75%
    18:00 +26°C° 0 mm 2 mps 745 mmHg 79%
    19:00 +25°C° 0 mm 2 mps 745 mmHg 82%
    20:00 +23°C° 0 mm 2 mps 746 mmHg 86%
    21:00 +23°C° 0.1 mm 2 mps 747 mmHg 87%
    22:00 +23°C° 0.1 mm 2 mps 747 mmHg 87%
    23:00 +21°C° 0.1 mm 2 mps 747 mmHg 88%

    26 November, Tuesday

    Time Temperature Precipitation Wind Pressure Humidity
    00:00 +21°C° 0 mm 2 mps 747 mmHg 87%
    01:00 +23°C° 0 mm 1 mps 747 mmHg 87%
    02:00 +21°C° 0 mm 0 mps 746 mmHg 86%
    03:00 +20°C° 0 mm 0 mps 747 mmHg 87%
    04:00 +20°C° 0 mm 0 mps 747 mmHg 88%
    05:00 +20°C° 0 mm 0 mps 747 mmHg 88%
    06:00 +24°C° 0 mm 1 mps 747 mmHg 80%
    07:00 +25°C° 0 mm 1 mps 748 mmHg 73%
    08:00 +27°C° 0 mm 1 mps 748 mmHg 65%
    09:00 +29°C° 0 mm 1 mps 748 mmHg 60%
    10:00 +30°C° 0 mm 2 mps 748 mmHg 55%
    11:00 +32°C° 0 mm 2 mps 748 mmHg 50%
    12:00 +31°C° 0 mm 3 mps 747 mmHg 54%
    13:00 +30°C° 0 mm 3 mps 747 mmHg 59%
    14:00 +29°C° 0 mm 3 mps 747 mmHg 63%
    15:00 +28°C° 0 mm 4 mps 747 mmHg 65%
    16:00 +27°C° 0 mm 4 mps 746 mmHg 67%
    17:00 +27°C° 0 mm 4 mps 746 mmHg 69%
    18:00 +26°C° 0.1 mm 3 mps 747 mmHg 74%
    19:00 +24°C° 0.1 mm 3 mps 748 mmHg 80%
    20:00 +23°C° 0.1 mm 2 mps 748 mmHg 85%
    21:00 +23°C° 0.2 mm 1 mps 748 mmHg 87%
    22:00 +23°C° 0.2 mm 1 mps 749 mmHg 89%
    23:00 +21°C° 0.2 mm 0 mps 749 mmHg 90%

    27 November, Wednesday

    Time Temperature Precipitation Wind Pressure Humidity
    00:00 +20°C° 0.3 mm 0 mps 749 mmHg 92%
    01:00 +20°C° 0.3 mm 0 mps 749 mmHg 93%
    02:00 +20°C° 0.3 mm 0 mps 748 mmHg 94%
    03:00 +20°C° 0.1 mm 0 mps 748 mmHg 94%
    04:00 +20°C° 0.1 mm 0 mps 748 mmHg 94%
    05:00 +20°C° 0.1 mm 0 mps 748 mmHg 94%
    06:00 +21°C° 0 mm 0 mps 749 mmHg 89%
    07:00 +24°C° 0 mm 1 mps 749 mmHg 84%
    08:00 +25°C° 0 mm 1 mps 750 mmHg 79%
    09:00 +26°C° 0 mm 1 mps 749 mmHg 73%
    10:00 +28°C° 0 mm 2 mps 749 mmHg 68%
    11:00 +29°C° 0 mm 2 mps 748 mmHg 63%
    12:00 +30°C° 0 mm 3 mps 747 mmHg 58%
    13:00 +33°C° 0 mm 3 mps 746 mmHg 53%
    14:00 +34°C° 0 mm 3 mps 745 mmHg 49%
    15:00 +34°C° 0 mm 3 mps 745 mmHg 51%
    16:00 +33°C° 0 mm 4 mps 745 mmHg 53%
    17:00 +33°C° 0 mm 4 mps 744 mmHg 56%
    18:00 +29°C° 0 mm 3 mps 745 mmHg 65%
    19:00 +27°C° 0 mm 2 mps 745 mmHg 74%
    20:00 +24°C° 0 mm 2 mps 745 mmHg 83%
    21:00 +24°C° 0 mm 1 mps 745 mmHg 87%
    22:00 +23°C° 0 mm 1 mps 746 mmHg 90%
    23:00 +22°C° 0 mm 1 mps 746 mmHg 94%
    Show more